Location: Bruneau Dunes Observatory
(42.9024°N, 115.6902°W)
Time: 19:44:27
(UTC-06:00)

Daily predictions for brighter satellites

Satellite Brightness Start Highest point End
(mag) Time Altitude Azimuth Time Altitude Azimuth Time Altitude Azimuth
Lacrosse 4 Rocket 3.9 21:56:43 10° WSW 22:00:28 29° NW 22:04:19 10° N
Cosmos 1850 Rocket 4.0 21:57:07 10° SSW 22:02:15 75° ESE 22:07:28 10° NNE
Cosmos 1184 Rocket 3.6 22:01:25 10° SSW 22:04:43 57° WNW 22:08:04 10° N
USA 234 3.9 21:59:31 10° ENE 22:05:10 30° SE 22:10:47 10° S
Terra 4.0 22:05:15 10° E 22:06:57 12° ENE 22:08:38 10° NE
ERS-1 Rocket 3.2 22:02:50 10° SSE 22:07:46 59° ENE 22:12:44 10° N
Cosmos 1459 Rocket 4.2 22:03:25 10° N 22:09:41 61° E 22:15:47 10° SSE
Cosmos 1356 Rocket 3.6 22:09:39 10° S 22:13:50 58° E 22:18:04 10° NNE
Cosmos 2100 Rocket 4.1 22:09:26 10° N 22:15:46 73° E 22:22:07 10° SSE
YAOGAN 6 3.0 22:14:36 10° S 22:18:13 65° WSW 22:21:54 10° NNW
MetOp-B 4.3 22:16:58 10° SSE 22:22:14 62° ENE 22:27:33 10° N
Cosmos 2061 Rocket 4.1 22:16:47 10° N 22:23:10 70° E 22:29:34 10° SSE
Cosmos 2297 Rocket 3.9 22:18:08 10° SW 22:23:22 38° WNW 22:28:38 10° N
Cosmos 1726 3.0 22:20:30 10° N 22:23:53 33° ENE 22:26:41 13° SE
H-2A R/B 3.0 22:19:43 11° SE 22:24:24 36° ENE 22:29:19 10° N
Cosmos 2173 Rocket 4.0 22:19:18 10° N 22:25:30 79° E 22:31:44 10° S
Cosmos 1741 Rocket 4.4 22:22:35 10° SSW 22:27:52 69° WNW 22:33:11 10° NNE
Cosmos 1300 3.8 22:24:32 10° NNE 22:27:57 30° ENE 22:30:38 14° SE
RESURS DK-1 2.8 22:25:22 10° NNW 22:29:27 51° ENE 22:32:49 14° SE
Cosmos 1818 4.2 22:25:10 10° NW 22:30:27 52° WSW 22:35:41 10° SSE
SL-14 R/B 4.2 22:28:55 13° SSE 22:31:54 30° E 22:35:22 10° NNE
Cosmos 2263 Rocket 3.4 22:28:33 12° SE 22:32:08 21° E 22:36:15 10° NE
Cosmos 1076 Rocket 3.6 22:29:00 10° S 22:33:22 81° W 22:37:44 10° N
ATLAS 5 CENTAUR R/B 2.7 22:31:16 10° SW 22:35:51 53° NW 22:40:53 10° NNE
Meteor 1-21 Rocket 4.2 22:30:16 10° S 22:35:56 90° W 22:41:34 10° N
ERBS 3.3 22:33:54 10° NW 22:37:07 39° NE 22:39:46 14° ESE
Cosmos 1408 Rocket 3.5 22:33:03 10° S 22:37:18 70° E 22:41:38 10° NNE
Cosmos 1328 4.4 22:38:21 14° SSE 22:41:22 38° E 22:45:08 10° NNE
Tiangong 1 0.7 22:39:26 10° W 22:42:15 90° E 22:44:32 14° E
Meteor 2-2 Rocket 4.4 22:39:51 10° N 22:45:36 64° ENE 22:50:28 15° SSE
Cosmos 2221 3.9 22:42:37 10° NNW 22:46:41 37° W 22:50:43 10° SSW
Cosmos 1725 Rocket 4.1 22:42:47 10° N 22:49:00 61° E 22:54:01 16° SSE
EO 1 Delta rocket 4.0 22:46:04 16° SSE 22:49:40 56° ENE 22:54:15 10° N
Cosmos 2151 4.1 22:47:33 18° SE 22:49:44 27° E 22:53:22 10° NNE
Cosmos 1802 Rocket 4.1 22:44:13 10° N 22:50:22 78° W 22:56:30 10° S
Cosmos 1674 4.1 22:50:48 10° SSW 22:54:20 38° WNW 22:57:52 10° N
Cosmos 1500 Rocket 4.1 22:55:08 19° SSE 22:57:53 41° E 23:02:03 10° NNE
Cosmos 1603 3.8 22:54:24 10° NNW 23:00:04 79° WSW 23:04:18 18° SSE
Cosmos 1455 4.1 22:58:33 10° NNE 23:01:11 17° ENE 23:02:32 15° E
Cosmos 371 Rocket 3.3 22:56:29 10° NNW 23:01:19 76° ENE 23:04:29 21° SSE
Cosmos 1814 Rocket 4.0 22:56:06 10° NNW 23:01:28 79° ENE 23:05:09 20° SSE
DMSP B5D2-2 4.4 22:58:47 10° NNE 23:03:48 45° E 23:07:11 19° SSE
CARTOSAT-1 4.3 23:06:34 22° SE 23:08:48 40° ENE 23:12:51 10° N
SPOT 5 3.2 23:05:30 16° S 23:09:25 67° WSW 23:14:31 10° NNW
Cosmos 1486 Rocket 4.0 23:04:43 12° S 23:09:36 61° ESE 23:14:50 10° NNE
Abrixas rocket 2.1 23:06:34 10° WNW 23:09:49 82° NNE 23:11:18 29° ESE
ARGOS 3.5 23:05:44 14° S 23:10:27 62° WSW 23:15:50 10° NNW
Lacrosse 5 2.0 23:05:41 10° NW 23:10:43 64° SW 23:13:41 24° SSE
Cosmos 841 Rocket 3.7 23:05:42 10° NNW 23:10:54 59° ENE 23:13:59 24° SE
Cosmos 1763 Rocket 3.4 23:07:19 10° NNW 23:12:27 77° ENE 23:15:31 24° SSE
CZ-4C R/B 3.9 23:13:21 13° E 23:13:21 13° E 23:15:20 10° E
Cosmos 1943 3.3 23:09:26 10° NNW 23:15:06 71° ENE 23:18:35 24° SE
SL-16 R/B 4.3 23:12:15 10° NW 23:16:17 20° W 23:20:18 10° SW
Cosmos 2016 Rocket 4.5 23:10:23 10° NNW 23:16:31 59° W 23:22:13 12° S
Cosmos 1328 Rocket 3.7 23:14:57 10° NNW 23:19:16 69° W 23:22:01 21° S
SPOT 1/Viking Rocket 3.6 23:15:47 20° S 23:19:25 75° WSW 23:24:35 10° NNW
USA 245 4.5 23:22:12 17° SSW 23:24:30 36° W 23:28:24 10° NNW
Cosmos 1151 Rocket 3.0 23:20:57 10° N 23:25:21 76° E 23:27:26 30° SSE
Cosmos 1515 Rocket 3.5 23:21:01 10° N 23:25:23 83° W 23:27:42 27° S
IGS 5A 3.7 23:24:55 31° SE 23:26:41 58° ENE 23:30:47 10° N
Landsat 7 3.8 23:26:21 26° SSE 23:29:02 86° W 23:33:49 10° NNW
H-2A R/B 2.4 23:28:08 30° SE 23:29:54 51° ENE 23:34:01 10° N
Cosmos 1743 Rocket 3.9 23:27:29 16° SSW 23:30:54 63° W 23:35:12 10° N
Cosmos 2228 Rocket 3.8 23:29:45 10° NNW 23:34:14 53° W 23:37:05 21° SSW
Cosmos 1703 3.4 23:33:10 37° SSE 23:34:29 60° E 23:38:26 10° NNE
CZ-2C R/B 4.5 23:38:00 10° ENE 23:40:31 13° E 23:41:08 13° E
Cosmos 2233 Rocket 4.0 23:34:39 10° N 23:40:54 86° W 23:44:36 26° S
Terra 1.8 23:41:46 33° SSE 23:43:58 87° W 23:48:45 10° NNW
USA 234 3.4 23:42:00 10° NE 23:48:34 79° NW 23:55:05 10° WSW
CZ-4 R/B 4.0 23:43:54 10° NNE 23:48:41 56° E 23:50:16 37° SSE
SME Rocket 3.8 23:51:06 32° ESE 23:52:17 41° ENE 23:56:41 10° N
Cosmos 1626 2.2 23:53:53 40° SSW 23:55:05 71° W 23:58:48 10° N
